Location: Roland
(31.1349°N, 85.4372°W)
Time: 05:18:28
(UTC+00:00)

Courier 1B - Pass Details

Date: 20 April 2021
Orbit: 962 x 1209 km, 28.3° (Epoch: 07 May)

Event Time Altitude Azimuth Distance (km) Brightness Sun altitude
Rises 16:56:42 0° 231° (SW) 3,793 10.6 68.1°
Reaches altitude 10° 16:59:41 10° 223° (SW) 2,804 10.2 68.4°
Maximum altitude 17:05:45 35° 159° (SSE) 1,531 9.7 69.0°
Drops below altitude 10° 17:11:35 10° 95° (E) 2,701 10.1 69.5°
Sets 17:14:24 0° 87° (E) 3,638 10.6 69.7°
